| time (UTC) | temp C | wind direction | speed KPH | gust KPH | rain 1hr cm | rain 24hr cm | rain mn cm | humidity % | barometer mb |
| 20260507131104 | 10 | 225 | 11.3 | 16.1 | 0.00 | 0.00 | 0.00 | 34 | 1018.9 |
| 20260507130605 | 10 | 249 | 4.8 | 12.9 | 0.00 | 0.00 | 0.00 | 31 | 1018.9 |
| 20260507130104 | 10 | 302 | 4.8 | 9.7 | 0.00 | 0.00 | 0.00 | 29 | 1018.7 |
| 20260507125605 | 10 | 207 | 0.0 | 4.8 | 0.00 | 0.00 | 0.00 | 30 | 1018.8 |
| 20260507124604 | 10 | 189 | 3.2 | 20.9 | 0.00 | 0.00 | 0.00 | 33 | 1018.9 |
| 20260507124104 | 10 | 243 | 12.9 | 20.9 | 0.00 | 0.00 | 0.00 | 33 | 1018.9 |
| 20260507123605 | 10 | 247 | 4.8 | 9.7 | 0.00 | 0.00 | 0.00 | 31 | 1018.8 |
| 20260507123104 | 10 | 268 | 4.8 | 11.3 | 0.00 | 0.00 | 0.00 | 29 | 1018.9 |
| 20260507122604 | 10 | 142 | 12.9 | 19.3 | 0.00 | 0.00 | 0.00 | 29 | 1018.9 |
| 20260507122104 | 10 | 321 | 1.6 | 4.8 | 0.00 | 0.00 | 0.00 | 30 | 1018.9 |
| 20260507121105 | 10 | 199 | 8.0 | 14.5 | 0.00 | 0.00 | 0.00 | 30 | 1019.0 |
| 20260507120604 | 11 | 180 | 8.0 | 20.9 | 0.00 | 0.00 | 0.00 | 31 | 1018.9 |
| 20260507120104 | 10 | 308 | 3.2 | 14.5 | 0.00 | 0.00 | 0.00 | 30 | 1018.9 |
| 20260507115604 | 10 | 72 | 6.4 | 16.1 | 0.00 | 0.00 | 0.00 | 32 | 1018.9 |
| 20260507115104 | 9 | 184 | 3.2 | 19.3 | 0.00 | 0.00 | 0.00 | 29 | 1018.9 |
| 20260507114604 | 9 | 146 | 8.0 | 14.5 | 0.00 | 0.00 | 0.00 | 31 | 1018.9 |
| 20260507114104 | 8 | 59 | 1.6 | 11.3 | 0.00 | 0.00 | 0.00 | 32 | 1018.9 |
| 20260507113605 | 8 | 310 | 6.4 | 11.3 | 0.00 | 0.00 | 0.00 | 31 | 1018.8 |
| 20260507113105 | 8 | 267 | 1.6 | 19.3 | 0.00 | 0.00 | 0.00 | 32 | 1018.9 |
| 20260507112604 | 9 | 214 | 12.9 | 19.3 | 0.00 | 0.00 | 0.00 | 35 | 1018.9 |
| 20260507111605 | 10 | 331 | 8.0 | 16.1 | 0.00 | 0.00 | 0.00 | 29 | 1019.0 |
| 20260507110604 | 9 | 146 | 1.6 | 16.1 | 0.00 | 0.00 | 0.00 | 30 | 1019.1 |
| 20260507110104 | 9 | 42 | 3.2 | 11.3 | 0.00 | 0.00 | 0.00 | 31 | 1019.2 |
| 20260507105604 | 9 | 44 | 8.0 | 16.1 | 0.00 | 0.00 | 0.00 | 31 | 1019.2 |
| 20260507105104 | 9 | 70 | 8.0 | 14.5 | 0.00 | 0.00 | 0.00 | 31 | 1019.1 |
| 20260507104605 | 8 | 25 | 3.2 | 14.5 | 0.00 | 0.00 | 0.00 | 32 | 1019.1 |
| 20260507104104 | 8 | 68 | 6.4 | 14.5 | 0.00 | 0.00 | 0.00 | 32 | 1019.1 |
| 20260507103604 | 9 | 355 | 1.6 | 16.1 | 0.00 | 0.00 | 0.00 | 33 | 1019.1 |
| 20260507103104 | 9 | 91 | 4.8 | 16.1 | 0.00 | 0.00 | 0.00 | 33 | 1019.1 |
| 20260507102605 | 8 | 43 | 4.8 | 19.3 | 0.00 | 0.00 | 0.00 | 34 | 1019.1 |
| 20260507102104 | 8 | 100 | 4.8 | 14.5 | 0.00 | 0.00 | 0.00 | 36 | 1019.1 |
| 20260507101104 | 8 | 0 | 3.2 | 19.3 | 0.00 | 0.00 | 0.00 | 34 | 1019.1 |
| 20260507100604 | 8 | 354 | 9.7 | 14.5 | 0.00 | 0.00 | 0.00 | 32 | 1019.1 |
| 20260507100104 | 8 | 26 | 4.8 | 11.3 | 0.00 | 0.00 | 0.00 | 33 | 1019.1 |
| 20260507095604 | 8 | 300 | 1.6 | 9.7 | 0.00 | 0.00 | 0.00 | 35 | 1019.0 |
| 20260507095104 | 8 | 24 | 3.2 | 12.9 | 0.00 | 0.00 | 0.00 | 34 | 1019.1 |
| 20260507094104 | 7 | 105 | 8.0 | 14.5 | 0.00 | 0.00 | 0.00 | 35 | 1019.0 |
| 20260507093604 | 8 | 338 | 8.0 | 12.9 | 0.00 | 0.00 | 0.00 | 36 | 1019.1 |
| 20260507093104 | 8 | 136 | 4.8 | 14.5 | 0.00 | 0.00 | 0.00 | 35 | 1019.0 |
| 20260507092604 | 8 | 59 | 6.4 | 12.9 | 0.00 | 0.00 | 0.00 | 37 | 1019.1 |
| 20260507092104 | 7 | 45 | 3.2 | 8.0 | 0.00 | 0.00 | 0.00 | 39 | 1019.0 |
| 20260507091604 | 7 | 108 | 1.6 | 12.9 | 0.00 | 0.00 | 0.00 | 37 | 1019.0 |
| 20260507091105 | 7 | 6 | 8.0 | 14.5 | 0.00 | 0.00 | 0.00 | 36 | 1019.1 |
| 20260507090604 | 7 | 147 | 4.8 | 9.7 | 0.00 | 0.00 | 0.00 | 39 | 1019.0 |
| 20260507090105 | 7 | 67 | 3.2 | 12.9 | 0.00 | 0.00 | 0.00 | 39 | 1019.0 |
| 20260507085604 | 6 | 123 | 3.2 | 11.3 | 0.00 | 0.00 | 0.00 | 42 | 1019.0 |
| 20260507085105 | 6 | 204 | 3.2 | 4.8 | 0.00 | 0.00 | 0.00 | 39 | 1018.9 |
| 20260507084604 | 6 | 113 | 0.0 | 8.0 | 0.00 | 0.00 | 0.00 | 39 | 1019.0 |
| 20260507084104 | 6 | 115 | 0.0 | 8.0 | 0.00 | 0.00 | 0.00 | 40 | 1019.0 |
| 20260507083605 | 6 | 95 | 3.2 | 8.0 | 0.00 | 0.00 | 0.00 | 39 | 1019.0 |
| 20260507083104 | 6 | 61 | 0.0 | 3.2 | 0.00 | 0.00 | 0.00 | 43 | 1019.0 |
| 20260507082604 | 6 | 60 | 1.6 | 9.7 | 0.00 | 0.00 | 0.00 | 42 | 1019.0 |
| 20260507081104 | 5 | 238 | 0.0 | 3.2 | 0.00 | 0.00 | 0.00 | 46 | 1019.0 |
| 20260507080604 | 5 | 238 | 0.0 | 4.8 | 0.00 | 0.00 | 0.00 | 47 | 1018.9 |
| 20260507080105 | 4 | 238 | 1.6 | 4.8 | 0.00 | 0.00 | 0.00 | 47 | 1018.9 |
| 20260507075604 | 5 | 187 | 0.0 | 1.6 | 0.00 | 0.00 | 0.00 | 48 | 1018.9 |
| 20260507074604 | 4 | 189 | 0.0 | 3.2 | 0.00 | 0.00 | 0.00 | 52 | 1018.8 |
| 20260507074105 | 4 | 189 | 1.6 | 4.8 | 0.00 | 0.00 | 0.00 | 53 | 1018.8 |
| 20260507073605 | 3 | 189 | 0.0 | 4.8 | 0.00 | 0.00 | 0.00 | 54 | 1018.8 |
| 20260507073104 | 3 | 190 | 3.2 | 4.8 | 0.00 | 0.00 | 0.00 | 54 | 1018.8 |
| 20260507072605 | 3 | 198 | 0.0 | 4.8 | 0.00 | 0.00 | 0.00 | 59 | 1018.8 |
| 20260507072104 | 3 | 198 | 1.6 | 4.8 | 0.00 | 0.00 | 0.00 | 58 | 1018.8 |
| 20260507071604 | 3 | 238 | 1.6 | 4.8 | 0.00 | 0.00 | 0.00 | 60 | 1018.8 |
| 20260507071104 | 3 | 264 | 0.0 | 3.2 | 0.00 | 0.00 | 0.00 | 59 | 1018.8 |
| 20260507070605 | 2 | 265 | 1.6 | 4.8 | 0.00 | 0.00 | 0.00 | 60 | 1018.7 |
| 20260507070104 | 2 | 266 | 0.0 | 3.2 | 0.00 | 0.00 | 0.00 | 62 | 1018.7 |
| 20260507065105 | 2 | 266 | 0.0 | 3.2 | 0.00 | 0.00 | 0.00 | 65 | 1018.8 |
| 20260507064604 | 2 | 266 | 0.0 | 0.0 | 0.00 | 0.00 | 0.00 | 66 | 1018.7 |
| 20260507064104 | 2 | 266 | 0.0 | 0.0 | 0.00 | 0.00 | 0.00 | 68 | 1018.7 |
| 20260507063605 | 1 | 266 | 0.0 | 0.0 | 0.00 | 0.00 | 0.00 | 71 | 1018.7 |
| 20260507063104 | 1 | 266 | 0.0 | 0.0 | 0.00 | 0.00 | 0.00 | 72 | 1018.7 |
| 20260507062604 | 0 | 266 | 0.0 | 0.0 | 0.00 | 0.00 | 0.00 | 72 | 1018.8 |
| 20260507062105 | 0 | 266 | 0.0 | 0.0 | 0.00 | 0.00 | 0.00 | 75 | 1018.7 |
| 20260507061605 | 0 | 266 | 0.0 | 0.0 | 0.00 | 0.00 | 0.00 | 77 | 1018.7 |
| 20260507061104 | 0 | 266 | 0.0 | 0.0 | 0.00 | 0.00 | 0.00 | 77 | 1018.7 |
| 20260507060604 | 0 | 266 | 0.0 | 0.0 | 0.00 | 0.00 | 0.00 | 79 | 1018.7 |
| 20260507060105 | 0 | 266 | 0.0 | 0.0 | 0.00 | 0.00 | 0.00 | 80 | 1018.7 |
| 20260507055104 | -1 | 266 | 0.0 | 0.0 | 0.00 | 0.00 | 0.00 | 83 | 1018.7 |
| 20260507054104 | -1 | 266 | 0.0 | 0.0 | 0.00 | 0.00 | 0.00 | 87 | 1018.7 |
| 20260507053604 | -2 | 266 | 0.0 | 0.0 | 0.00 | 0.00 | 0.00 | 88 | 1018.7 |
| 20260507052604 | -3 | 266 | 0.0 | 0.0 | 0.00 | 0.00 | 0.00 | 90 | 1018.7 |
| 20260507051605 | -4 | 266 | 0.0 | 0.0 | 0.00 | 0.00 | 0.00 | 91 | 1018.7 |
| 20260507050604 | -5 | 266 | 0.0 | 0.0 | 0.00 | 0.00 | 0.00 | 90 | 1018.7 |
| 20260507045604 | -5 | 266 | 0.0 | 0.0 | 0.00 | 0.00 | 0.00 | 90 | 1018.7 |
| 20260507045104 | -5 | 266 | 0.0 | 0.0 | 0.00 | 0.00 | 0.00 | 90 | 1018.7 |
| 20260507044604 | -5 | 266 | 0.0 | 0.0 | 0.00 | 0.00 | 0.00 | 90 | 1018.6 |
| 20260507044104 | -5 | 266 | 0.0 | 0.0 | 0.00 | 0.00 | 0.00 | 90 | 1018.5 |
| 20260507043604 | -5 | 266 | 0.0 | 0.0 | 0.00 | 0.00 | 0.00 | 90 | 1018.5 |
| 20260507043104 | -5 | 266 | 0.0 | 0.0 | 0.00 | 0.00 | 0.00 | 90 | 1018.5 |
| 20260507042605 | -5 | 266 | 0.0 | 0.0 | 0.00 | 0.00 | 0.00 | 90 | 1018.4 |
| 20260507042104 | -5 | 266 | 0.0 | 0.0 | 0.00 | 0.00 | 0.00 | 90 | 1018.4 |
| 20260507041604 | -5 | 266 | 0.0 | 0.0 | 0.00 | 0.00 | 0.00 | 90 | 1018.4 |
| 20260507041104 | -5 | 266 | 0.0 | 0.0 | 0.00 | 0.00 | 0.00 | 90 | 1018.4 |
| 20260507035604 | -6 | 266 | 0.0 | 0.0 | 0.00 | 0.00 | 0.00 | 90 | 1018.3 |
| 20260507035104 | -6 | 266 | 0.0 | 0.0 | 0.00 | 0.00 | 0.00 | 90 | 1018.3 |
| 20260507034605 | -6 | 266 | 0.0 | 0.0 | 0.00 | 0.00 | 0.00 | 90 | 1018.2 |
| 20260507034104 | -6 | 266 | 0.0 | 0.0 | 0.00 | 0.00 | 0.00 | 90 | 1018.2 |
| 20260507033604 | -6 | 266 | 0.0 | 0.0 | 0.00 | 0.00 | 0.00 | 89 | 1018.1 |
| 20260507033105 | -5 | 266 | 0.0 | 0.0 | 0.00 | 0.00 | 0.00 | 90 | 1018.1 |
| 20260507032104 | -5 | 266 | 0.0 | 0.0 | 0.00 | 0.00 | 0.00 | 90 | 1018.1 |
| 20260507031605 | -5 | 266 | 0.0 | 0.0 | 0.00 | 0.00 | 0.00 | 89 | 1018.1 |
| 20260507031104 | -5 | 266 | 0.0 | 0.0 | 0.00 | 0.00 | 0.00 | 90 | 1018.1 |
| 20260507030604 | -5 | 265 | 0.0 | 0.0 | 0.00 | 0.00 | 0.00 | 90 | 1018.1 |
| 20260507025104 | -5 | 266 | 0.0 | 0.0 | 0.00 | 0.00 | 0.00 | 90 | 1018.0 |
| 20260507024605 | -5 | 266 | 0.0 | 0.0 | 0.00 | 0.00 | 0.00 | 89 | 1017.9 |
| 20260507024104 | -5 | 265 | 0.0 | 0.0 | 0.00 | 0.00 | 0.00 | 89 | 1018.0 |
| 20260507023604 | -5 | 266 | 0.0 | 0.0 | 0.00 | 0.00 | 0.00 | 90 | 1017.9 |
| 20260507022604 | -5 | 266 | 0.0 | 0.0 | 0.00 | 0.00 | 0.00 | 89 | 1017.8 |
| 20260507022105 | -5 | 265 | 0.0 | 0.0 | 0.00 | 0.00 | 0.00 | 89 | 1017.8 |
| 20260507021605 | -5 | 266 | 0.0 | 0.0 | 0.00 | 0.00 | 0.00 | 89 | 1017.8 |
| 20260507021104 | -5 | 266 | 0.0 | 0.0 | 0.00 | 0.00 | 0.00 | 89 | 1017.8 |
| 20260507020605 | -5 | 266 | 0.0 | 0.0 | 0.00 | 0.00 | 0.00 | 89 | 1017.8 |
| 20260507020105 | -5 | 266 | 0.0 | 0.0 | 0.00 | 0.00 | 0.00 | 89 | 1017.7 |
| 20260507015604 | -5 | 266 | 0.0 | 0.0 | 0.00 | 0.00 | 0.00 | 89 | 1017.7 |
| 20260507014605 | -5 | 266 | 0.0 | 0.0 | 0.00 | 0.00 | 0.00 | 89 | 1017.7 |
| 20260507014104 | -5 | 266 | 0.0 | 0.0 | 0.00 | 0.00 | 0.00 | 89 | 1017.7 |
| 20260507013604 | -5 | 266 | 0.0 | 0.0 | 0.00 | 0.00 | 0.00 | 89 | 1017.7 |
| 20260507013105 | -5 | 266 | 0.0 | 0.0 | 0.00 | 0.00 | 0.00 | 89 | 1017.7 |
| 20260507012604 | -5 | 266 | 0.0 | 0.0 | 0.00 | 0.00 | 0.00 | 89 | 1017.7 |
| 20260507011604 | -5 | 266 | 0.0 | 0.0 | 0.00 | 0.00 | 0.00 | 87 | 1017.6 |
| 20260507010605 | -4 | 266 | 0.0 | 0.0 | 0.00 | 0.00 | 0.00 | 88 | 1017.6 |
| 20260507010104 | -4 | 265 | 0.0 | 0.0 | 0.00 | 0.00 | 0.00 | 88 | 1017.5 |
| 20260507005604 | -4 | 266 | 0.0 | 0.0 | 0.00 | 0.00 | 0.00 | 88 | 1017.5 |
| 20260507005105 | -4 | 266 | 0.0 | 0.0 | 0.00 | 0.00 | 0.00 | 88 | 1017.5 |
| 20260507004604 | -4 | 266 | 0.0 | 0.0 | 0.00 | 0.00 | 0.00 | 88 | 1017.5 |
| 20260507004104 | -4 | 266 | 0.0 | 0.0 | 0.00 | 0.00 | 0.00 | 87 | 1017.5 |
| 20260507003605 | -4 | 266 | 0.0 | 0.0 | 0.00 | 0.00 | 0.00 | 88 | 1017.4 |
| 20260507003104 | -4 | 266 | 0.0 | 0.0 | 0.00 | 0.00 | 0.00 | 88 | 1017.4 |
| 20260507002604 | -4 | 265 | 0.0 | 0.0 | 0.00 | 0.00 | 0.00 | 87 | 1017.4 |
| 20260507002105 | -4 | 266 | 0.0 | 0.0 | 0.00 | 0.00 | 0.00 | 87 | 1017.3 |
| 20260507001604 | -4 | 266 | 0.0 | 0.0 | 0.00 | 0.00 | 0.00 | 87 | 1017.3 |
| 20260507001104 | -3 | 266 | 0.0 | 0.0 | 0.00 | 0.00 | 0.00 | 86 | 1017.3 |
| 20260507000605 | -3 | 266 | 0.0 | 0.0 | 0.00 | 0.00 | 0.00 | 86 | 1017.3 |
| 20260507000104 | -3 | 266 | 0.0 | 0.0 | 0.00 | 0.00 | 0.00 | 86 | 1017.3 |
| 20260506235605 | -3 | 266 | 0.0 | 0.0 | 0.00 | 0.00 | 0.00 | 86 | 1017.3 |
| 20260506235105 | -3 | 266 | 0.0 | 0.0 | 0.00 | 0.00 | 0.00 | 86 | 1017.4 |
| 20260506234604 | -3 | 266 | 0.0 | 0.0 | 0.00 | 0.00 | 0.00 | 86 | 1017.4 |
| 20260506233605 | -3 | 266 | 0.0 | 0.0 | 0.00 | 0.00 | 0.00 | 86 | 1017.3 |
| 20260506233104 | -3 | 266 | 0.0 | 0.0 | 0.00 | 0.00 | 0.00 | 85 | 1017.3 |
| 20260506232604 | -3 | 266 | 0.0 | 0.0 | 0.00 | 0.00 | 0.00 | 85 | 1017.2 |
| 20260506231604 | -2 | 266 | 0.0 | 0.0 | 0.00 | 0.00 | 0.00 | 84 | 1017.1 |
| 20260506231105 | -2 | 266 | 0.0 | 0.0 | 0.00 | 0.00 | 0.00 | 83 | 1017.1 |
| 20260506230604 | -2 | 266 | 0.0 | 0.0 | 0.00 | 0.00 | 0.00 | 83 | 1017.1 |
| 20260506230104 | -2 | 266 | 0.0 | 0.0 | 0.00 | 0.00 | 0.00 | 83 | 1017.1 |
| 20260506225604 | -2 | 266 | 0.0 | 0.0 | 0.00 | 0.00 | 0.00 | 83 | 1017.1 |
| 20260506225104 | -2 | 266 | 0.0 | 0.0 | 0.00 | 0.00 | 0.00 | 83 | 1017.1 |
| 20260506224105 | -2 | 266 | 0.0 | 0.0 | 0.00 | 0.00 | 0.00 | 82 | 1017.1 |
| 20260506223605 | -2 | 266 | 0.0 | 0.0 | 0.00 | 0.00 | 0.00 | 82 | 1017.1 |
| 20260506223104 | -2 | 266 | 0.0 | 0.0 | 0.00 | 0.00 | 0.00 | 82 | 1017.1 |
| 20260506222604 | -2 | 266 | 0.0 | 0.0 | 0.00 | 0.00 | 0.00 | 82 | 1017.1 |
| 20260506222105 | -2 | 266 | 0.0 | 0.0 | 0.00 | 0.00 | 0.00 | 81 | 1017.1 |
| 20260506221604 | -1 | 266 | 0.0 | 0.0 | 0.00 | 0.00 | 0.00 | 79 | 1017.0 |
| 20260506221104 | -1 | 265 | 0.0 | 0.0 | 0.00 | 0.00 | 0.00 | 79 | 1017.0 |
| 20260506220604 | -1 | 266 | 0.0 | 0.0 | 0.00 | 0.00 | 0.00 | 78 | 1016.9 |
| 20260506220105 | -1 | 266 | 0.0 | 0.0 | 0.00 | 0.00 | 0.00 | 78 | 1016.9 |
| 20260506215604 | -1 | 265 | 0.0 | 0.0 | 0.00 | 0.00 | 0.00 | 78 | 1016.9 |
| 20260506214605 | -1 | 266 | 0.0 | 0.0 | 0.00 | 0.00 | 0.00 | 78 | 1016.8 |
| 20260506213604 | -1 | 266 | 0.0 | 0.0 | 0.00 | 0.00 | 0.00 | 77 | 1016.8 |
| 20260506213104 | -1 | 266 | 0.0 | 0.0 | 0.00 | 0.00 | 0.00 | 76 | 1016.8 |
| 20260506212604 | -1 | 266 | 0.0 | 0.0 | 0.00 | 0.00 | 0.00 | 76 | 1016.7 |
| 20260506212104 | -1 | 266 | 0.0 | 0.0 | 0.00 | 0.00 | 0.00 | 75 | 1016.7 |
| 20260506211104 | 0 | 266 | 0.0 | 0.0 | 0.00 | 0.00 | 0.00 | 73 | 1016.6 |
| 20260506210605 | 0 | 266 | 0.0 | 0.0 | 0.00 | 0.00 | 0.00 | 72 | 1016.6 |
| 20260506210105 | 0 | 266 | 0.0 | 0.0 | 0.00 | 0.00 | 0.00 | 71 | 1016.5 |
| 20260506205604 | 0 | 266 | 0.0 | 3.2 | 0.00 | 0.00 | 0.00 | 70 | 1016.5 |
| 20260506205105 | 0 | 266 | 0.0 | 8.0 | 0.00 | 0.00 | 0.00 | 70 | 1016.5 |
| 20260506204104 | 0 | 270 | 1.6 | 4.8 | 0.00 | 0.00 | 0.00 | 68 | 1016.5 |
| 20260506203604 | 1 | 270 | 0.0 | 3.2 | 0.00 | 0.00 | 0.00 | 67 | 1016.4 |
| 20260506203105 | 1 | 270 | 3.2 | 4.8 | 0.00 | 0.00 | 0.00 | 66 | 1016.5 |
| 20260506202604 | 1 | 265 | 1.6 | 8.0 | 0.00 | 0.00 | 0.00 | 66 | 1016.5 |
| 20260506202105 | 1 | 275 | 3.2 | 8.0 | 0.00 | 0.00 | 0.00 | 66 | 1016.4 |
| 20260506201604 | 1 | 246 | 6.4 | 9.7 | 0.00 | 0.00 | 0.00 | 66 | 1016.4 |
| 20260506201104 | 1 | 284 | 3.2 | 11.3 | 0.00 | 0.00 | 0.00 | 65 | 1016.4 |
| 20260506200604 | 1 | 293 | 1.6 | 9.7 | 0.00 | 0.00 | 0.00 | 64 | 1016.4 |
| 20260506200104 | 1 | 296 | 4.8 | 11.3 | 0.00 | 0.00 | 0.00 | 64 | 1016.4 |
| 20260506195605 | 1 | 287 | 1.6 | 4.8 | 0.00 | 0.00 | 0.00 | 64 | 1016.4 |
| 20260506195105 | 2 | 287 | 1.6 | 4.8 | 0.00 | 0.00 | 0.00 | 63 | 1016.3 |
| 20260506194604 | 2 | 287 | 4.8 | 8.0 | 0.00 | 0.00 | 0.00 | 62 | 1016.4 |
| 20260506193605 | 2 | 287 | 4.8 | 9.7 | 0.00 | 0.00 | 0.00 | 61 | 1016.3 |
| 20260506193104 | 2 | 278 | 4.8 | 9.7 | 0.00 | 0.00 | 0.00 | 60 | 1016.2 |
| 20260506192604 | 2 | 293 | 3.2 | 4.8 | 0.00 | 0.00 | 0.00 | 60 | 1016.2 |
| 20260506191604 | 2 | 288 | 3.2 | 8.0 | 0.00 | 0.00 | 0.00 | 59 | 1016.1 |
| 20260506191104 | 2 | 290 | 4.8 | 11.3 | 0.00 | 0.00 | 0.00 | 59 | 1016.0 |
| 20260506190605 | 2 | 308 | 4.8 | 9.7 | 0.00 | 0.00 | 0.00 | 59 | 1016.0 |
| 20260506190105 | 3 | 296 | 3.2 | 9.7 | 0.00 | 0.00 | 0.00 | 60 | 1015.9 |
| 20260506185104 | 3 | 291 | 4.8 | 12.9 | 0.00 | 0.00 | 0.00 | 60 | 1015.9 |
| 20260506184604 | 3 | 282 | 0.0 | 4.8 | 0.00 | 0.00 | 0.00 | 60 | 1015.8 |
| 20260506184104 | 3 | 281 | 3.2 | 4.8 | 0.00 | 0.00 | 0.00 | 60 | 1015.8 |
| 20260506182604 | 3 | 280 | 3.2 | 9.7 | 0.00 | 0.00 | 0.00 | 60 | 1015.8 |
| 20260506182104 | 3 | 254 | 6.4 | 11.3 | 0.00 | 0.00 | 0.00 | 60 | 1015.8 |
| 20260506181604 | 3 | 288 | 3.2 | 9.7 | 0.00 | 0.00 | 0.00 | 60 | 1015.9 |
| 20260506181104 | 3 | 317 | 4.8 | 12.9 | 0.00 | 0.00 | 0.00 | 59 | 1015.8 |
| 20260506180104 | 3 | 306 | 8.0 | 14.5 | 0.00 | 0.00 | 0.00 | 58 | 1015.7 |
| 20260506175604 | 3 | 326 | 8.0 | 16.1 | 0.00 | 0.00 | 0.00 | 58 | 1015.7 |
| 20260506174605 | 4 | 271 | 4.8 | 9.7 | 0.00 | 0.00 | 0.00 | 59 | 1015.6 |
| 20260506174104 | 4 | 290 | 3.2 | 11.3 | 0.00 | 0.00 | 0.00 | 58 | 1015.7 |
| 20260506173604 | 4 | 285 | 1.6 | 4.8 | 0.00 | 0.00 | 0.00 | 59 | 1015.7 |
| 20260506173104 | 4 | 296 | 3.2 | 8.0 | 0.00 | 0.00 | 0.00 | 59 | 1015.6 |
| 20260506172604 | 4 | 297 | 3.2 | 9.7 | 0.00 | 0.00 | 0.00 | 58 | 1015.5 |
| 20260506172104 | 4 | 260 | 4.8 | 8.0 | 0.00 | 0.00 | 0.00 | 58 | 1015.6 |
| 20260506171605 | 4 | 309 | 6.4 | 12.9 | 0.00 | 0.00 | 0.00 | 57 | 1015.6 |
| 20260506170605 | 4 | 302 | 4.8 | 9.7 | 0.00 | 0.00 | 0.00 | 57 | 1015.6 |
| 20260506170104 | 4 | 336 | 4.8 | 11.3 | 0.00 | 0.00 | 0.00 | 57 | 1015.6 |
| 20260506165605 | 4 | 310 | 4.8 | 14.5 | 0.00 | 0.00 | 0.00 | 56 | 1015.6 |
| 20260506165104 | 4 | 325 | 6.4 | 12.9 | 0.00 | 0.00 | 0.00 | 56 | 1015.6 |
| 20260506164604 | 5 | 311 | 6.4 | 9.7 | 0.00 | 0.00 | 0.00 | 55 | 1015.7 |
| 20260506163604 | 5 | 310 | 3.2 | 12.9 | 0.00 | 0.00 | 0.00 | 55 | 1015.7 |
| 20260506162604 | 5 | 324 | 8.0 | 11.3 | 0.00 | 0.00 | 0.00 | 56 | 1015.6 |
| 20260506161605 | 5 | 330 | 1.6 | 12.9 | 0.00 | 0.00 | 0.00 | 56 | 1015.5 |
| 20260506161104 | 5 | 290 | 1.6 | 14.5 | 0.00 | 0.00 | 0.00 | 57 | 1015.6 |
| 20260506160604 | 5 | 298 | 8.0 | 19.3 | 0.00 | 0.00 | 0.00 | 55 | 1015.6 |
| 20260506160105 | 5 | 309 | 4.8 | 14.5 | 0.00 | 0.00 | 0.00 | 55 | 1015.7 |
| 20260506155604 | 5 | 300 | 3.2 | 12.9 | 0.00 | 0.00 | 0.00 | 55 | 1015.7 |
| 20260506155104 | 5 | 321 | 6.4 | 12.9 | 0.00 | 0.00 | 0.00 | 54 | 1015.7 |
| 20260506154604 | 5 | 310 | 3.2 | 9.7 | 0.00 | 0.00 | 0.00 | 54 | 1015.7 |
| 20260506154104 | 5 | 258 | 4.8 | 11.3 | 0.00 | 0.00 | 0.00 | 59 | 1015.7 |
| 20260506153604 | 4 | 316 | 9.7 | 19.3 | 0.00 | 0.00 | 0.00 | 57 | 1015.8 |
| 20260506153104 | 4 | 314 | 9.7 | 16.1 | 0.00 | 0.00 | 0.00 | 59 | 1015.8 |
| 20260506152604 | 4 | 296 | 4.8 | 8.0 | 0.00 | 0.00 | 0.00 | 60 | 1015.8 |
| 20260506151605 | 5 | 286 | 8.0 | 14.5 | 0.00 | 0.00 | 0.00 | 56 | 1015.8 |
| 20260506151104 | 5 | 292 | 6.4 | 14.5 | 0.00 | 0.00 | 0.00 | 57 | 1015.8 |
| 20260506150605 | 6 | 290 | 4.8 | 14.5 | 0.00 | 0.00 | 0.00 | 57 | 1015.8 |
| 20260506150105 | 5 | 220 | 4.8 | 19.3 | 0.00 | 0.00 | 0.00 | 57 | 1015.7 |
| 20260506145604 | 5 | 234 | 11.3 | 19.3 | 0.00 | 0.00 | 0.00 | 57 | 1015.8 |
| 20260506145104 | 5 | 270 | 3.2 | 11.3 | 0.00 | 0.00 | 0.00 | 58 | 1015.8 |
| 20260506144604 | 5 | 339 | 4.8 | 19.3 | 0.00 | 0.00 | 0.00 | 60 | 1015.8 |
| 20260506144104 | 4 | 228 | 9.7 | 16.1 | 0.00 | 0.00 | 0.00 | 60 | 1015.9 |
| 20260506143105 | 4 | 245 | 8.0 | 16.1 | 0.00 | 0.00 | 0.00 | 60 | 1015.9 |
| 20260506142605 | 4 | 326 | 4.8 | 12.9 | 0.00 | 0.00 | 0.00 | 59 | 1015.9 |
| 20260506142104 | 5 | 292 | 4.8 | 12.9 | 0.00 | 0.00 | 0.00 | 58 | 1016.0 |
| 20260506141605 | 5 | 287 | 11.3 | 19.3 | 0.00 | 0.00 | 0.00 | 56 | 1016.0 |
| 20260506141105 | 5 | 299 | 4.8 | 12.9 | 0.00 | 0.00 | 0.00 | 54 | 1015.9 |
| 20260506140605 | 5 | 305 | 6.4 | 16.1 | 0.00 | 0.00 | 0.00 | 52 | 1015.9 |
| 20260506140104 | 5 | 319 | 3.2 | 8.0 | 0.00 | 0.00 | 0.00 | 51 | 1015.9 |
| 20260506135604 | 5 | 288 | 8.0 | 16.1 | 0.00 | 0.00 | 0.00 | 51 | 1016.0 |
| 20260506135105 | 5 | 211 | 4.8 | 16.1 | 0.00 | 0.00 | 0.00 | 50 | 1015.8 |
| 20260506134604 | 5 | 298 | 1.6 | 12.9 | 0.00 | 0.00 | 0.00 | 50 | 1015.8 |
| 20260506134104 | 5 | 253 | 8.0 | 14.5 | 0.00 | 0.00 | 0.00 | 50 | 1015.8 |
| 20260506133604 | 5 | 294 | 9.7 | 19.3 | 0.00 | 0.00 | 0.00 | 50 | 1015.8 |
| 20260506132604 | 5 | 321 | 0.0 | 11.3 | 0.00 | 0.00 | 0.00 | 51 | 1015.8 |
| 20260506132104 | 4 | 244 | 4.8 | 11.3 | 0.00 | 0.00 | 0.00 | 51 | 1015.8 |
| 20260506131605 | 5 | 261 | 11.3 | 19.3 | 0.00 | 0.00 | 0.00 | 54 | 1015.9 |